Pluckemin, NJ

9:38 PM EST on February 13, 2016 (GMT -0500)
Somerset

Weather History for KSMQ - July, 2014

Change the Weather History Date:

Monday, July 7, 2014

  Actual Average (KEWR) Record (KEWR)
Temperature  
Mean Temperature 78 °F 77 °F  
Max Temperature 90 °F 86 °F 103 °F (1993)
Min Temperature 66 °F 68 °F 57 °F (1940)
Degree Days  
Heating Degree Days 0 0  
Month to date heating degree days 0  
Since 1 June heating degree days 17  
Since 1 July heating degree days 0  
Cooling Degree Days 12 12  
Month to date cooling degree days 83  
Year to date cooling degree days 398  
Since 1 June cooling degree days 322  
Growing Degree Days 28 (Base 50)    
Moisture  
Dew Point 64 °F    
Average Humidity 62    
Maximum Humidity 90    
Minimum Humidity 43    
Precipitation  
Precipitation 0.00 in 0.14 in 3.29 in (1984)
Month to date precipitation 0.91  
Year to date precipitation 23.82  
Snow  
Snow 0.00 in 0.00 in 0.00 in (2002)
Month to date snowfall 0.0  
Since 1 July snowfall 0.0  
Snow Depth -    
Sea Level Pressure  
Sea Level Pressure 29.82 in    
Wind  
Wind Speed 3 mph (South)    
Max Wind Speed 13 mph    
Max Gust Speed 23 mph    
Visibility 10 miles    
Events Thunderstorm    
T = Trace of Precipitation, MM = Missing Value Source: NWS Daily Summary

Daily Weather History Graph

Daily Weather History Graph

Search for Another Location

Airport or City:

Trip Planner

Search our weather history database for the weather conditions in past years. The results will help you decide how hot, cold, wet, or windy it might be!

Date:

Astronomy

Jul. 07, 2014 Rise Set
Actual Time 5:34 AM EDT 8:32 PM EDT
Civil Twilight 5:02 AM EDT 9:04 PM EDT
Nautical Twilight 4:20 AM EDT 9:46 PM EDT
Astronomical Twilight 3:31 AM EDT 10:34 PM EDT
Moon 3:31 PM EDT (7/7) 1:27 AM EDT (7/7)
Length of Visible Light 16h 02m
Length of Day
14h 57m
Waxing Gibbous, 72% of the Moon is Illuminated
Jul 7
Waxing Gibbous
Jul 12
Full
Jul 18
Last Quarter
Jul 26
New
Aug 3
First Quarter

Hourly Weather History & Observations

Time (EDT) Temp. Heat Index Dew Point Humidity Pressure Visibility Wind Dir Wind Speed Gust Speed Precip Events Conditions
12:53 AM 68.0 °F - 61.0 °F 78% 29.91 in 10.0 mi Calm Calm - N/A   Mostly Cloudy
1:53 AM 68.0 °F - 62.1 °F 81% 29.90 in 10.0 mi Calm Calm - N/A   Mostly Cloudy
2:53 AM 66.9 °F - 63.0 °F 87% 29.88 in 10.0 mi Calm Calm - N/A   Overcast
3:53 AM 66.9 °F - 63.0 °F 87% 29.86 in 10.0 mi Calm Calm - N/A   Overcast
4:53 AM 66.9 °F - 62.1 °F 84% 29.87 in 10.0 mi Calm Calm - N/A   Mostly Cloudy
5:53 AM 66.0 °F - 63.0 °F 90% 29.87 in 10.0 mi Calm Calm - N/A   Overcast
6:53 AM 69.1 °F - 64.0 °F 84% 29.87 in 10.0 mi Calm Calm - N/A   Clear
7:53 AM 73.9 °F - 64.9 °F 73% 29.87 in 10.0 mi Calm Calm - N/A   Clear
8:53 AM 77.0 °F - 66.0 °F 69% 29.86 in 10.0 mi Variable 3.5 mph - N/A   Clear
9:53 AM 81.0 °F 83.0 °F 66.0 °F 60% 29.85 in 10.0 mi Variable 4.6 mph - N/A   Clear
10:53 AM 82.9 °F 85.0 °F 66.0 °F 56% 29.83 in 10.0 mi Variable 4.6 mph - N/A   Clear
11:53 AM 86.0 °F 87.3 °F 64.0 °F 48% 29.82 in 10.0 mi Variable 4.6 mph - N/A   Partly Cloudy
12:53 PM 88.0 °F 88.7 °F 63.0 °F 43% 29.79 in 10.0 mi SW 8.1 mph - N/A   Partly Cloudy
1:53 PM 88.0 °F 89.6 °F 64.9 °F 46% 29.78 in 10.0 mi SSW 11.5 mph 23.0 mph N/A   Clear
2:53 PM 89.1 °F 91.0 °F 64.9 °F 45% 29.76 in 10.0 mi Variable 4.6 mph 16.1 mph N/A   Clear
3:53 PM 89.1 °F 91.3 °F 66.0 °F 46% 29.75 in 10.0 mi Variable 6.9 mph - N/A   Clear
4:53 PM 89.1 °F 91.3 °F 66.0 °F 46% 29.73 in 10.0 mi South 12.7 mph 18.4 mph N/A   Clear
5:53 PM 88.0 °F 90.3 °F 66.0 °F 48% 29.74 in 10.0 mi Variable 5.8 mph 20.7 mph N/A   Partly Cloudy
6:53 PM 88.0 °F 89.6 °F 64.9 °F 46% 29.73 in 10.0 mi Variable 4.6 mph - N/A   Clear
7:53 PM 84.9 °F 86.6 °F 64.9 °F 51% 29.75 in 10.0 mi Variable 5.8 mph - N/A   Clear
8:53 PM 82.9 °F 84.4 °F 64.0 °F 53% 29.76 in 10.0 mi South 4.6 mph - N/A   Clear
9:53 PM 79.0 °F - 64.0 °F 60% 29.78 in 10.0 mi SSE 3.5 mph - N/A   Clear
10:53 PM 79.0 °F - 64.0 °F 60% 29.78 in 10.0 mi Variable 3.5 mph - N/A   Clear
11:49 PM 80.6 °F 82.3 °F 64.4 °F 58% 29.82 in 10.0 mi North - - N/A Thunderstorm Scattered Clouds
11:53 PM 79.0 °F - 64.9 °F 62% 29.82 in 10.0 mi Variable 5.8 mph - N/A Thunderstorm Mostly Cloudy